| time (UTC) | temp F | wind direction | speed MPH | gust MPH | rain 1hr in | rain 24hr in | rain mn in | humidity % | barometer mb |
| 20260906094030 | 63 | 0 | 1.0 | 4.0 | 0.00 | 0.11 | 0.00 | 81 | 1013.6 |
| 20260906093534 | 63 | 103 | 1.0 | 4.0 | 0.00 | 0.11 | 0.00 | 81 | 1013.7 |
| 20260906093054 | 64 | 0 | 1.0 | 3.0 | 0.00 | 0.11 | 0.00 | 82 | 1013.6 |
| 20260906092533 | 64 | 103 | 1.0 | 7.0 | 0.00 | 0.11 | 0.00 | 82 | 1013.6 |
| 20260906092034 | 64 | 103 | 1.0 | 7.0 | 0.00 | 0.11 | 0.00 | 82 | 1013.5 |
| 20260906091552 | 64 | 103 | 1.0 | 6.0 | 0.00 | 0.11 | 0.00 | 82 | 1013.5 |
| 20260906091031 | 64 | 0 | 1.0 | 4.0 | 0.00 | 0.11 | 0.00 | 83 | 1013.3 |
| 20260906090532 | 64 | 103 | 1.0 | 4.0 | 0.00 | 0.11 | 0.00 | 84 | 1013.3 |
| 20260906090055 | 64 | 103 | 0.0 | 6.0 | 0.00 | 0.11 | 0.00 | 84 | 1013.2 |
| 20260906085536 | 64 | 103 | 1.0 | 7.0 | 0.00 | 0.11 | 0.00 | 87 | 1013.3 |
| 20260906085031 | 63 | 103 | 0.0 | 7.0 | 0.00 | 0.11 | 0.00 | 85 | 1013.3 |
| 20260906084553 | 63 | 0 | 2.0 | 7.0 | 0.00 | 0.11 | 0.00 | 85 | 1013.2 |
| 20260906084031 | 63 | 0 | 1.0 | 6.0 | 0.00 | 0.11 | 0.00 | 85 | 1013.1 |
| 20260906083534 | 64 | 108 | 0.0 | 7.0 | 0.00 | 0.11 | 0.00 | 84 | 1013.1 |
| 20260906083045 | 64 | 108 | 1.0 | 7.0 | 0.00 | 0.11 | 0.00 | 85 | 1013.1 |
| 20260906082531 | 64 | 0 | 1.0 | 7.0 | 0.00 | 0.11 | 0.00 | 85 | 1013.1 |
| 20260906082032 | 64 | 109 | 0.0 | 6.0 | 0.00 | 0.11 | 0.00 | 85 | 1013.1 |
| 20260906081546 | 64 | 109 | 0.0 | 6.0 | 0.00 | 0.11 | 0.00 | 86 | 1013.0 |
| 20260906081031 | 63 | 109 | 0.0 | 2.0 | 0.00 | 0.11 | 0.00 | 87 | 1013.0 |
| 20260906080530 | 63 | 109 | 0.0 | 2.0 | 0.00 | 0.11 | 0.00 | 88 | 1013.1 |
| 20260906080058 | 63 | 0 | 0.0 | 2.0 | 0.00 | 0.11 | 0.00 | 87 | 1013.1 |
| 20260906075531 | 63 | 0 | 0.0 | 2.0 | 0.00 | 0.11 | 0.00 | 87 | 1013.0 |
| 20260906075036 | 63 | 0 | 0.0 | 4.0 | 0.00 | 0.11 | 0.00 | 87 | 1013.0 |
| 20260906074548 | 63 | 0 | 0.0 | 4.0 | 0.00 | 0.11 | 0.00 | 88 | 1013.0 |
| 20260906074033 | 63 | 0 | 1.0 | 4.0 | 0.00 | 0.11 | 0.00 | 89 | 1013.0 |
| 20260906073534 | 62 | 0 | 0.0 | 2.0 | 0.00 | 0.11 | 0.00 | 89 | 1013.1 |
| 20260906073047 | 62 | 0 | 0.0 | 2.0 | 0.00 | 0.11 | 0.00 | 89 | 1013.0 |
| 20260906072531 | 62 | 0 | 0.0 | 2.0 | 0.00 | 0.11 | 0.00 | 90 | 1012.9 |
| 20260906072033 | 62 | 0 | 0.0 | 0.0 | 0.00 | 0.11 | 0.00 | 90 | 1013.0 |
| 20260906071545 | 62 | 0 | 0.0 | 0.0 | 0.00 | 0.11 | 0.00 | 90 | 1012.9 |
| 20260906071030 | 62 | 0 | 0.0 | 0.0 | 0.00 | 0.11 | 0.00 | 90 | 1012.8 |
| 20260906070531 | 62 | 0 | 0.0 | 0.0 | 0.00 | 0.11 | 0.00 | 89 | 1012.9 |
| 20260906070041 | 62 | 0 | 0.0 | 0.0 | 0.00 | 0.11 | 0.00 | 89 | 1012.8 |
| 20260906065531 | 62 | 0 | 0.0 | 0.0 | 0.00 | 0.11 | 0.00 | 89 | 1012.9 |
| 20260906065031 | 62 | 0 | 0.0 | 0.0 | 0.00 | 0.11 | 0.00 | 89 | 1013.0 |
| 20260906064548 | 63 | 0 | 0.0 | 0.0 | 0.00 | 0.11 | 0.00 | 89 | 1013.1 |
| 20260906064031 | 63 | 0 | 0.0 | 0.0 | 0.00 | 0.11 | 0.00 | 89 | 1012.9 |
| 20260906063533 | 63 | 0 | 0.0 | 1.0 | 0.00 | 0.11 | 0.00 | 89 | 1013.0 |
| 20260906063047 | 63 | 0 | 0.0 | 2.0 | 0.00 | 0.11 | 0.00 | 88 | 1013.1 |
| 20260906062533 | 63 | 109 | 0.0 | 2.0 | 0.00 | 0.11 | 0.00 | 88 | 1013.1 |
| 20260906062035 | 63 | 0 | 0.0 | 0.0 | 0.00 | 0.11 | 0.00 | 89 | 1013.1 |
| 20260906061546 | 63 | 0 | 0.0 | 2.0 | 0.00 | 0.11 | 0.00 | 89 | 1013.1 |
| 20260906061034 | 63 | 0 | 0.0 | 2.0 | 0.00 | 0.11 | 0.00 | 89 | 1013.1 |
| 20260906060530 | 62 | 0 | 0.0 | 0.0 | 0.00 | 0.11 | 0.00 | 90 | 1013.2 |
| 20260906055531 | 62 | 0 | 0.0 | 0.0 | 0.00 | 0.11 | 0.00 | 89 | 1013.1 |
| 20260906055034 | 62 | 0 | 0.0 | 0.0 | 0.00 | 0.11 | 0.00 | 90 | 1013.2 |
| 20260906054550 | 63 | 0 | 0.0 | 0.0 | 0.00 | 0.11 | 0.00 | 90 | 1013.2 |
| 20260906054034 | 63 | 0 | 0.0 | 0.0 | 0.00 | 0.11 | 0.00 | 90 | 1013.2 |
| 20260906053533 | 63 | 0 | 0.0 | 2.0 | 0.00 | 0.11 | 0.00 | 90 | 1013.3 |
| 20260906053047 | 63 | 0 | 0.0 | 2.0 | 0.00 | 0.11 | 0.00 | 89 | 1013.4 |
| 20260906052536 | 63 | 0 | 0.0 | 2.0 | 0.00 | 0.11 | 0.00 | 89 | 1013.4 |
| 20260906052031 | 63 | 109 | 1.0 | 2.0 | 0.00 | 0.11 | 0.00 | 89 | 1013.4 |
| 20260906051550 | 63 | 109 | 0.0 | 3.0 | 0.00 | 0.11 | 0.00 | 89 | 1013.3 |
| 20260906051031 | 63 | 109 | 0.0 | 3.0 | 0.00 | 0.11 | 0.00 | 89 | 1013.4 |
| 20260906050530 | 63 | 0 | 0.0 | 0.0 | 0.00 | 0.11 | 0.00 | 89 | 1013.5 |
| 20260906050105 | 63 | 0 | 0.0 | 0.0 | 0.00 | 0.11 | 0.00 | 89 | 1013.6 |
| 20260906045536 | 63 | 0 | 0.0 | 0.0 | 0.00 | 0.11 | 0.00 | 89 | 1013.6 |
| 20260906045034 | 63 | 0 | 0.0 | 2.0 | 0.00 | 0.11 | 0.00 | 88 | 1013.7 |
| 20260906044548 | 63 | 0 | 0.0 | 2.0 | 0.00 | 0.11 | 0.00 | 88 | 1013.7 |
| 20260906044035 | 63 | 0 | 0.0 | 2.0 | 0.00 | 0.11 | 0.00 | 87 | 1013.7 |
| 20260906043531 | 63 | 0 | 0.0 | 4.0 | 0.00 | 0.11 | 0.00 | 86 | 1013.5 |
| 20260906043056 | 63 | 109 | 1.0 | 4.0 | 0.00 | 0.11 | 0.00 | 86 | 1013.5 |
| 20260906042530 | 63 | 109 | 1.0 | 3.0 | 0.00 | 0.11 | 0.00 | 86 | 1013.4 |
| 20260906042031 | 63 | 0 | 0.0 | 2.0 | 0.00 | 0.11 | 0.00 | 86 | 1013.3 |
| 20260906041554 | 63 | 0 | 0.0 | 3.0 | 0.00 | 0.11 | 0.00 | 86 | 1013.2 |
| 20260906041033 | 63 | 109 | 0.0 | 6.0 | 0.00 | 0.11 | 0.00 | 85 | 1013.1 |
| 20260906040534 | 63 | 109 | 1.0 | 6.0 | 0.01 | 0.11 | 0.00 | 85 | 1013.3 |
| 20260906040053 | 63 | 0 | 2.0 | 7.0 | 0.01 | 0.11 | 0.00 | 84 | 1013.4 |
| 20260906035533 | 63 | 109 | 1.0 | 7.0 | 0.01 | 0.11 | 0.11 | 85 | 1013.4 |
| 20260906035034 | 63 | 111 | 1.0 | 6.0 | 0.01 | 0.11 | 0.11 | 87 | 1013.3 |
| 20260906034547 | 64 | 0 | 0.0 | 3.0 | 0.01 | 0.11 | 0.11 | 89 | 1013.3 |
| 20260906034035 | 64 | 0 | 1.0 | 3.0 | 0.01 | 0.11 | 0.11 | 88 | 1013.3 |
| 20260906033533 | 64 | 113 | 0.0 | 2.0 | 0.01 | 0.11 | 0.11 | 88 | 1013.4 |
| 20260906033046 | 64 | 0 | 0.0 | 6.0 | 0.01 | 0.11 | 0.11 | 88 | 1013.4 |
| 20260906032530 | 64 | 0 | 0.0 | 6.0 | 0.01 | 0.11 | 0.11 | 88 | 1013.2 |
| 20260906032031 | 64 | 0 | 0.0 | 6.0 | 0.01 | 0.11 | 0.11 | 88 | 1013.2 |
| 20260906031557 | 64 | 112 | 1.0 | 8.0 | 0.01 | 0.11 | 0.11 | 88 | 1013.2 |
| 20260906031033 | 64 | 0 | 0.0 | 8.0 | 0.00 | 0.10 | 0.10 | 88 | 1013.2 |
| 20260906030530 | 64 | 112 | 0.0 | 8.0 | 0.00 | 0.10 | 0.10 | 88 | 1013.1 |
| 20260906030059 | 64 | 0 | 0.0 | 7.0 | 0.00 | 0.10 | 0.10 | 87 | 1013.0 |
| 20260906025531 | 64 | 112 | 2.0 | 9.0 | 0.00 | 0.10 | 0.10 | 87 | 1013.1 |
| 20260906025034 | 64 | 112 | 2.0 | 9.0 | 0.00 | 0.10 | 0.10 | 87 | 1013.1 |
| 20260906024556 | 64 | 112 | 2.0 | 9.0 | 0.00 | 0.10 | 0.10 | 87 | 1013.0 |
| 20260906024030 | 64 | 71 | 2.0 | 9.0 | 0.00 | 0.10 | 0.10 | 88 | 1013.0 |
| 20260906023534 | 65 | 0 | 0.0 | 5.0 | 0.00 | 0.10 | 0.10 | 88 | 1013.1 |
| 20260906023055 | 65 | 0 | 0.0 | 7.0 | 0.00 | 0.10 | 0.10 | 88 | 1013.0 |
| 20260906022532 | 65 | 294 | 1.0 | 7.0 | 0.00 | 0.10 | 0.10 | 88 | 1013.0 |
| 20260906022040 | 65 | 0 | 2.0 | 7.0 | 0.00 | 0.10 | 0.10 | 89 | 1013.0 |
| 20260906021600 | 65 | 294 | 2.0 | 7.0 | 0.00 | 0.10 | 0.10 | 89 | 1013.0 |
| 20260906021030 | 65 | 294 | 1.0 | 5.0 | 0.00 | 0.10 | 0.10 | 90 | 1013.0 |
| 20260906020531 | 65 | 294 | 1.0 | 7.0 | 0.00 | 0.10 | 0.10 | 89 | 1013.0 |
| 20260906020055 | 65 | 296 | 2.0 | 7.0 | 0.00 | 0.10 | 0.10 | 89 | 1012.8 |
| 20260906015535 | 65 | 295 | 2.0 | 7.0 | 0.00 | 0.10 | 0.10 | 90 | 1012.9 |
| 20260906015033 | 65 | 0 | 1.0 | 7.0 | 0.00 | 0.10 | 0.10 | 90 | 1012.9 |
| 20260906014559 | 65 | 0 | 1.0 | 7.0 | 0.00 | 0.10 | 0.10 | 90 | 1012.8 |
| 20260906014038 | 65 | 297 | 3.0 | 7.0 | 0.00 | 0.10 | 0.10 | 90 | 1012.7 |
| 20260906013530 | 65 | 297 | 1.0 | 7.0 | 0.00 | 0.10 | 0.10 | 90 | 1012.5 |
| 20260906013049 | 65 | 297 | 3.0 | 7.0 | 0.00 | 0.10 | 0.10 | 90 | 1012.7 |
| 20260906012530 | 65 | 302 | 2.0 | 7.0 | 0.00 | 0.10 | 0.10 | 91 | 1012.6 |
| 20260906012036 | 65 | 302 | 2.0 | 7.0 | 0.00 | 0.10 | 0.10 | 92 | 1012.6 |
| 20260906011602 | 65 | 302 | 2.0 | 4.0 | 0.00 | 0.10 | 0.10 | 92 | 1012.5 |
| 20260906011032 | 65 | 302 | 1.0 | 3.0 | 0.00 | 0.10 | 0.10 | 92 | 1012.5 |
| 20260906010531 | 65 | 0 | 0.0 | 2.0 | 0.00 | 0.10 | 0.10 | 92 | 1012.4 |
| 20260906010047 | 65 | 302 | 0.0 | 0.0 | 0.00 | 0.10 | 0.10 | 91 | 1012.4 |
| 20260906005530 | 65 | 0 | 0.0 | 0.0 | 0.00 | 0.10 | 0.10 | 91 | 1012.3 |
| 20260906005034 | 65 | 0 | 0.0 | 0.0 | 0.00 | 0.10 | 0.10 | 91 | 1012.3 |
| 20260906004554 | 65 | 0 | 0.0 | 0.0 | 0.00 | 0.10 | 0.10 | 91 | 1012.2 |
| 20260906004034 | 65 | 0 | 0.0 | 0.0 | 0.01 | 0.10 | 0.10 | 91 | 1012.2 |
| 20260906003532 | 66 | 0 | 0.0 | 3.0 | 0.04 | 0.10 | 0.10 | 91 | 1012.1 |
| 20260906003049 | 66 | 0 | 0.0 | 3.0 | 0.05 | 0.10 | 0.10 | 91 | 1012.0 |
| 20260906002532 | 66 | 0 | 0.0 | 3.0 | 0.06 | 0.10 | 0.10 | 91 | 1011.8 |
| 20260906002031 | 66 | 0 | 1.0 | 3.0 | 0.06 | 0.10 | 0.10 | 91 | 1011.8 |
| 20260906001548 | 66 | 302 | 2.0 | 3.0 | 0.07 | 0.10 | 0.10 | 91 | 1011.7 |
| 20260906001033 | 66 | 302 | 1.0 | 3.0 | 0.07 | 0.10 | 0.10 | 91 | 1011.9 |
| 20260906000533 | 66 | 302 | 0.0 | 5.0 | 0.07 | 0.10 | 0.10 | 90 | 1011.9 |
| 20260906000057 | 66 | 302 | 1.0 | 5.0 | 0.07 | 0.10 | 0.10 | 90 | 1011.8 |
| 20260905235533 | 66 | 302 | 1.0 | 3.0 | 0.08 | 0.10 | 0.10 | 90 | 1011.7 |
| 20260905235031 | 67 | 302 | 0.0 | 4.0 | 0.08 | 0.10 | 0.10 | 90 | 1011.9 |
| 20260905234553 | 67 | 0 | 0.0 | 5.0 | 0.09 | 0.10 | 0.10 | 89 | 1011.8 |
| 20260905234033 | 67 | 302 | 1.0 | 5.0 | 0.07 | 0.08 | 0.08 | 89 | 1011.8 |
| 20260905233530 | 67 | 302 | 0.0 | 4.0 | 0.05 | 0.06 | 0.06 | 88 | 1011.7 |
| 20260905233105 | 67 | 302 | 1.0 | 3.0 | 0.04 | 0.05 | 0.05 | 88 | 1011.6 |
| 20260905232533 | 67 | 0 | 1.0 | 8.0 | 0.03 | 0.04 | 0.04 | 88 | 1011.5 |
| 20260905232032 | 67 | 302 | 3.0 | 8.0 | 0.03 | 0.04 | 0.04 | 87 | 1011.6 |
| 20260905231558 | 68 | 302 | 3.0 | 7.0 | 0.03 | 0.03 | 0.03 | 87 | 1011.5 |
| 20260905231033 | 68 | 0 | 1.0 | 4.0 | 0.03 | 0.03 | 0.03 | 87 | 1011.4 |
| 20260905230533 | 68 | 0 | 0.0 | 4.0 | 0.03 | 0.03 | 0.03 | 86 | 1011.4 |
| 20260905230058 | 68 | 305 | 1.0 | 4.0 | 0.02 | 0.02 | 0.02 | 86 | 1011.3 |
| 20260905225531 | 69 | 0 | 0.0 | 7.0 | 0.02 | 0.02 | 0.02 | 86 | 1011.3 |
| 20260905225030 | 69 | 0 | 1.0 | 7.0 | 0.02 | 0.02 | 0.02 | 85 | 1011.3 |
| 20260905224606 | 69 | 305 | 2.0 | 7.0 | 0.01 | 0.01 | 0.01 | 83 | 1011.3 |
| 20260905224122 | 69 | 0 | 0.0 | 0.0 | 0.01 | 0.01 | 0.01 | 84 | 1011.5 |
| 20260905223532 | 69 | 0 | 0.0 | 3.0 | 0.01 | 0.01 | 0.01 | 84 | 1011.3 |
| 20260905223048 | 70 | 0 | 0.0 | 3.0 | 0.01 | 0.01 | 0.01 | 84 | 1011.2 |
| 20260905222533 | 70 | 305 | 1.0 | 3.0 | 0.01 | 0.01 | 0.01 | 84 | 1011.1 |
| 20260905222036 | 70 | 305 | 0.0 | 3.0 | 0.01 | 0.01 | 0.01 | 84 | 1011.1 |
| 20260905221553 | 70 | 0 | 0.0 | 0.0 | 0.00 | 0.00 | 0.00 | 83 | 1011.2 |
| 20260905221035 | 70 | 0 | 0.0 | 1.0 | 0.00 | 0.00 | 0.00 | 83 | 1011.2 |
| 20260905220532 | 70 | 0 | 0.0 | 1.0 | 0.00 | 0.00 | 0.00 | 82 | 1011.0 |
| 20260905220051 | 70 | 0 | 0.0 | 3.0 | 0.00 | 0.00 | 0.00 | 81 | 1010.9 |
| 20260905215530 | 71 | 0 | 0.0 | 4.0 | 0.00 | 0.00 | 0.00 | 82 | 1010.9 |
| 20260905215030 | 71 | 0 | 1.0 | 4.0 | 0.00 | 0.00 | 0.00 | 82 | 1010.9 |
| 20260905214546 | 71 | 0 | 0.0 | 0.0 | 0.00 | 0.00 | 0.00 | 83 | 1010.7 |
| 20260905214032 | 71 | 0 | 0.0 | 0.0 | 0.00 | 0.00 | 0.00 | 82 | 1010.8 |
| 20260905213534 | 71 | 0 | 0.0 | 0.0 | 0.00 | 0.00 | 0.00 | 82 | 1010.7 |
| 20260905213056 | 71 | 0 | 0.0 | 0.0 | 0.00 | 0.00 | 0.00 | 81 | 1010.6 |
| 20260905212534 | 71 | 0 | 0.0 | 5.0 | 0.00 | 0.00 | 0.00 | 82 | 1010.4 |
| 20260905212033 | 71 | 0 | 0.0 | 7.0 | 0.00 | 0.00 | 0.00 | 78 | 1010.4 |
| 20260905211551 | 72 | 305 | 4.0 | 8.0 | 0.00 | 0.00 | 0.00 | 78 | 1010.5 |
| 20260905211031 | 72 | 305 | 6.0 | 8.0 | 0.00 | 0.00 | 0.00 | 76 | 1010.4 |
| 20260905210534 | 73 | 306 | 5.0 | 8.0 | 0.00 | 0.00 | 0.00 | 76 | 1010.4 |
| 20260905210053 | 73 | 0 | 0.0 | 2.0 | 0.00 | 0.00 | 0.00 | 74 | 1010.3 |
| 20260905205534 | 73 | 0 | 0.0 | 2.0 | 0.00 | 0.00 | 0.00 | 74 | 1010.3 |
| 20260905205034 | 73 | 305 | 1.0 | 4.0 | 0.00 | 0.00 | 0.00 | 73 | 1010.3 |
| 20260905204557 | 73 | 305 | 2.0 | 5.0 | 0.00 | 0.00 | 0.00 | 73 | 1010.2 |
| 20260905204030 | 73 | 305 | 3.0 | 5.0 | 0.00 | 0.00 | 0.00 | 74 | 1010.1 |
| 20260905203535 | 73 | 305 | 4.0 | 5.0 | 0.00 | 0.00 | 0.00 | 73 | 1010.2 |
| 20260905203053 | 73 | 305 | 3.0 | 7.0 | 0.00 | 0.00 | 0.00 | 72 | 1010.1 |
| 20260905202533 | 73 | 305 | 3.0 | 8.0 | 0.00 | 0.00 | 0.00 | 73 | 1010.2 |
| 20260905202033 | 73 | 305 | 5.0 | 9.0 | 0.00 | 0.00 | 0.00 | 72 | 1010.2 |
| 20260905201606 | 73 | 305 | 5.0 | 9.0 | 0.00 | 0.00 | 0.00 | 73 | 1010.0 |
| 20260905201038 | 74 | 305 | 6.0 | 9.0 | 0.00 | 0.00 | 0.00 | 72 | 1010.0 |
| 20260905200530 | 74 | 305 | 7.0 | 9.0 | 0.00 | 0.00 | 0.00 | 73 | 1010.0 |
| 20260905200051 | 74 | 305 | 5.0 | 8.0 | 0.00 | 0.00 | 0.00 | 72 | 1010.0 |
| 20260905195533 | 74 | 305 | 3.0 | 8.0 | 0.00 | 0.00 | 0.00 | 69 | 1010.0 |
| 20260905195031 | 74 | 305 | 6.0 | 8.0 | 0.00 | 0.00 | 0.00 | 70 | 1009.9 |
| 20260905194557 | 74 | 305 | 5.0 | 8.0 | 0.00 | 0.00 | 0.00 | 72 | 1010.0 |
| 20260905194033 | 74 | 305 | 5.0 | 8.0 | 0.00 | 0.00 | 0.00 | 71 | 1009.9 |
| 20260905193531 | 74 | 305 | 5.0 | 8.0 | 0.00 | 0.00 | 0.00 | 72 | 1009.9 |
| 20260905193054 | 74 | 305 | 4.0 | 8.0 | 0.00 | 0.00 | 0.00 | 73 | 1010.0 |
| 20260905192533 | 75 | 305 | 4.0 | 9.0 | 0.00 | 0.00 | 0.00 | 70 | 1010.0 |
| 20260905192034 | 75 | 305 | 5.0 | 9.0 | 0.00 | 0.00 | 0.00 | 71 | 1010.0 |
| 20260905191556 | 76 | 305 | 7.0 | 10.0 | 0.00 | 0.00 | 0.00 | 69 | 1010.0 |
| 20260905191031 | 76 | 311 | 6.0 | 10.0 | 0.00 | 0.00 | 0.00 | 70 | 1009.9 |
| 20260905190534 | 76 | 315 | 6.0 | 9.0 | 0.00 | 0.00 | 0.00 | 69 | 1009.9 |
| 20260905190132 | 76 | 316 | 6.0 | 9.0 | 0.00 | 0.00 | 0.00 | 68 | 1010.0 |
| 20260905185535 | 76 | 324 | 6.0 | 9.0 | 0.00 | 0.00 | 0.00 | 70 | 1010.0 |
| 20260905185032 | 76 | 326 | 5.0 | 6.0 | 0.00 | 0.00 | 0.00 | 68 | 1009.8 |
| 20260905184620 | 76 | 326 | 4.0 | 6.0 | 0.00 | 0.00 | 0.00 | 67 | 1009.9 |
| 20260905184031 | 76 | 326 | 5.0 | 9.0 | 0.00 | 0.00 | 0.00 | 68 | 1009.9 |
| 20260905183532 | 75 | 326 | 7.0 | 9.0 | 0.00 | 0.00 | 0.00 | 67 | 1009.9 |
| 20260905183057 | 75 | 326 | 6.0 | 8.0 | 0.00 | 0.00 | 0.00 | 67 | 1009.9 |
| 20260905182531 | 75 | 326 | 5.0 | 8.0 | 0.00 | 0.00 | 0.00 | 67 | 1009.9 |
| 20260905182031 | 75 | 326 | 5.0 | 8.0 | 0.00 | 0.00 | 0.00 | 68 | 1010.0 |
| 20260905181552 | 75 | 326 | 4.0 | 6.0 | 0.00 | 0.00 | 0.00 | 68 | 1010.0 |
| 20260905181031 | 76 | 326 | 4.0 | 6.0 | 0.00 | 0.00 | 0.00 | 66 | 1010.0 |
| 20260905180531 | 76 | 326 | 4.0 | 6.0 | 0.00 | 0.00 | 0.00 | 67 | 1010.1 |
| 20260905180047 | 76 | 326 | 3.0 | 8.0 | 0.00 | 0.00 | 0.00 | 69 | 1010.2 |
| 20260905175533 | 76 | 326 | 4.0 | 8.0 | 0.00 | 0.00 | 0.00 | 69 | 1010.2 |
| 20260905175030 | 76 | 326 | 4.0 | 8.0 | 0.00 | 0.00 | 0.00 | 67 | 1010.3 |
| 20260905174554 | 76 | 326 | 4.0 | 6.0 | 0.00 | 0.00 | 0.00 | 68 | 1010.3 |
| 20260905174032 | 76 | 326 | 4.0 | 8.0 | 0.00 | 0.00 | 0.00 | 68 | 1010.2 |
| 20260905173532 | 76 | 326 | 4.0 | 8.0 | 0.00 | 0.00 | 0.00 | 69 | 1010.3 |
| 20260905173057 | 75 | 326 | 5.0 | 8.0 | 0.00 | 0.00 | 0.00 | 70 | 1010.3 |
| 20260905172531 | 75 | 326 | 4.0 | 8.0 | 0.00 | 0.00 | 0.00 | 68 | 1010.3 |
| 20260905172031 | 75 | 327 | 4.0 | 8.0 | 0.00 | 0.00 | 0.00 | 67 | 1010.3 |
| 20260905171551 | 75 | 327 | 5.0 | 8.0 | 0.00 | 0.00 | 0.00 | 67 | 1010.4 |
| 20260905171031 | 76 | 329 | 4.0 | 8.0 | 0.00 | 0.00 | 0.00 | 68 | 1010.2 |
| 20260905170531 | 75 | 329 | 4.0 | 8.0 | 0.00 | 0.00 | 0.00 | 67 | 1010.2 |
| 20260905170047 | 75 | 331 | 4.0 | 8.0 | 0.00 | 0.00 | 0.00 | 67 | 1010.1 |
| 20260905165530 | 75 | 333 | 5.0 | 8.0 | 0.00 | 0.00 | 0.00 | 67 | 1010.2 |
| 20260905165032 | 75 | 337 | 4.0 | 8.0 | 0.00 | 0.00 | 0.00 | 70 | 1010.2 |
| 20260905164550 | 75 | 338 | 4.0 | 9.0 | 0.00 | 0.00 | 0.00 | 70 | 1010.2 |
| 20260905164032 | 74 | 339 | 4.0 | 9.0 | 0.00 | 0.00 | 0.00 | 69 | 1010.2 |
| 20260905163530 | 74 | 339 | 5.0 | 8.0 | 0.00 | 0.00 | 0.00 | 70 | 1010.2 |
| 20260905163052 | 74 | 340 | 4.0 | 6.0 | 0.00 | 0.00 | 0.00 | 69 | 1010.2 |
| 20260905162532 | 74 | 340 | 3.0 | 6.0 | 0.00 | 0.00 | 0.00 | 69 | 1010.1 |
| 20260905162033 | 74 | 340 | 3.0 | 6.0 | 0.00 | 0.00 | 0.00 | 72 | 1010.1 |
| 20260905161553 | 74 | 340 | 3.0 | 6.0 | 0.00 | 0.00 | 0.00 | 72 | 1010.2 |
| 20260905161031 | 74 | 340 | 4.0 | 6.0 | 0.00 | 0.00 | 0.00 | 72 | 1010.1 |
| 20260905160531 | 74 | 342 | 4.0 | 6.0 | 0.00 | 0.00 | 0.00 | 72 | 1010.1 |
| 20260905160046 | 73 | 342 | 3.0 | 6.0 | 0.00 | 0.00 | 0.00 | 71 | 1010.2 |
| 20260905155532 | 73 | 342 | 5.0 | 6.0 | 0.00 | 0.00 | 0.00 | 71 | 1010.1 |
| 20260905155031 | 73 | 342 | 4.0 | 8.0 | 0.00 | 0.00 | 0.00 | 71 | 1010.2 |
| 20260905154547 | 73 | 343 | 5.0 | 8.0 | 0.00 | 0.00 | 0.00 | 70 | 1010.3 |
| 20260905154032 | 73 | 343 | 5.0 | 8.0 | 0.00 | 0.00 | 0.00 | 70 | 1010.2 |
| 20260905153532 | 73 | 343 | 5.0 | 8.0 | 0.00 | 0.00 | 0.00 | 71 | 1010.3 |
| 20260905153045 | 73 | 343 | 5.0 | 9.0 | 0.00 | 0.00 | 0.00 | 72 | 1010.3 |
| 20260905152532 | 73 | 343 | 5.0 | 9.0 | 0.00 | 0.00 | 0.00 | 72 | 1010.2 |
| 20260905152031 | 73 | 344 | 4.0 | 10.0 | 0.00 | 0.00 | 0.00 | 73 | 1010.2 |
| 20260905151549 | 73 | 344 | 6.0 | 10.0 | 0.00 | 0.00 | 0.00 | 71 | 1010.2 |
| 20260905151037 | 72 | 344 | 6.0 | 9.0 | 0.00 | 0.00 | 0.00 | 75 | 1010.3 |
| 20260905150532 | 73 | 344 | 7.0 | 10.0 | 0.00 | 0.00 | 0.00 | 71 | 1010.2 |
| 20260905150047 | 73 | 345 | 5.0 | 10.0 | 0.00 | 0.00 | 0.00 | 71 | 1010.3 |
| 20260905145532 | 73 | 345 | 4.0 | 10.0 | 0.00 | 0.00 | 0.00 | 74 | 1010.3 |
| 20260905145032 | 72 | 345 | 5.0 | 10.0 | 0.00 | 0.00 | 0.00 | 74 | 1010.1 |
| 20260905144546 | 72 | 344 | 7.0 | 10.0 | 0.00 | 0.00 | 0.00 | 73 | 1010.1 |
| 20260905144031 | 72 | 343 | 7.0 | 10.0 | 0.00 | 0.00 | 0.00 | 73 | 1010.0 |
| 20260905143531 | 71 | 344 | 6.0 | 10.0 | 0.00 | 0.00 | 0.00 | 75 | 1010.1 |
| 20260905143053 | 71 | 344 | 7.0 | 10.0 | 0.00 | 0.00 | 0.00 | 76 | 1010.1 |
| 20260905142529 | 71 | 344 | 5.0 | 10.0 | 0.00 | 0.00 | 0.00 | 75 | 1010.1 |
| 20260905142031 | 72 | 344 | 6.0 | 10.0 | 0.00 | 0.00 | 0.00 | 76 | 1010.0 |
| 20260905141601 | 72 | 350 | 6.0 | 9.0 | 0.00 | 0.00 | 0.00 | 74 | 1010.0 |
| 20260905141031 | 72 | 351 | 5.0 | 9.0 | 0.00 | 0.00 | 0.00 | 72 | 1010.0 |
| 20260905140532 | 72 | 351 | 6.0 | 9.0 | 0.00 | 0.00 | 0.00 | 74 | 1010.0 |
| 20260905140047 | 72 | 351 | 6.0 | 9.0 | 0.00 | 0.00 | 0.00 | 73 | 1010.1 |
| 20260905135531 | 71 | 350 | 5.0 | 8.0 | 0.00 | 0.00 | 0.00 | 72 | 1010.2 |
| 20260905135031 | 71 | 351 | 4.0 | 8.0 | 0.00 | 0.00 | 0.00 | 72 | 1010.2 |
| 20260905134546 | 71 | 351 | 3.0 | 8.0 | 0.00 | 0.00 | 0.00 | 75 | 1010.3 |
| 20260905134031 | 71 | 351 | 5.0 | 8.0 | 0.00 | 0.00 | 0.00 | 74 | 1010.3 |
| 20260905133532 | 71 | 350 | 4.0 | 8.0 | 0.00 | 0.00 | 0.00 | 74 | 1010.4 |
| 20260905133044 | 71 | 350 | 4.0 | 8.0 | 0.00 | 0.00 | 0.00 | 75 | 1010.4 |
| 20260905132531 | 70 | 350 | 4.0 | 8.0 | 0.00 | 0.00 | 0.00 | 74 | 1010.3 |
| 20260905132031 | 70 | 350 | 4.0 | 10.0 | 0.00 | 0.00 | 0.00 | 75 | 1010.4 |
| 20260905131601 | 70 | 351 | 5.0 | 10.0 | 0.00 | 0.00 | 0.00 | 76 | 1010.4 |
| 20260905131054 | 70 | 350 | 6.0 | 10.0 | 0.00 | 0.00 | 0.00 | 77 | 1010.5 |
| 20260905130530 | 70 | 350 | 7.0 | 10.0 | 0.00 | 0.00 | 0.00 | 77 | 1010.4 |
| 20260905130047 | 70 | 350 | 6.0 | 10.0 | 0.00 | 0.00 | 0.00 | 77 | 1010.4 |
| 20260905125530 | 70 | 350 | 6.0 | 11.0 | 0.00 | 0.00 | 0.00 | 76 | 1010.4 |
| 20260905125033 | 69 | 350 | 8.0 | 11.0 | 0.00 | 0.00 | 0.00 | 76 | 1010.4 |
| 20260905124550 | 69 | 350 | 5.0 | 9.0 | 0.00 | 0.00 | 0.00 | 78 | 1010.6 |
| 20260905124033 | 69 | 350 | 5.0 | 10.0 | 0.00 | 0.00 | 0.00 | 75 | 1010.6 |
| 20260905123531 | 69 | 350 | 3.0 | 10.0 | 0.00 | 0.00 | 0.00 | 79 | 1010.6 |
| 20260905123100 | 69 | 350 | 5.0 | 10.0 | 0.00 | 0.00 | 0.00 | 80 | 1010.6 |
| 20260905122531 | 68 | 350 | 4.0 | 8.0 | 0.00 | 0.00 | 0.00 | 80 | 1010.6 |
| 20260905122029 | 68 | 350 | 4.0 | 9.0 | 0.00 | 0.00 | 0.00 | 80 | 1010.6 |
| 20260905121551 | 68 | 350 | 4.0 | 9.0 | 0.00 | 0.00 | 0.00 | 79 | 1010.6 |
| 20260905121031 | 69 | 350 | 5.0 | 9.0 | 0.00 | 0.00 | 0.00 | 78 | 1010.6 |
| 20260905120533 | 69 | 350 | 6.0 | 10.0 | 0.00 | 0.00 | 0.00 | 79 | 1010.4 |
| 20260905120050 | 68 | 349 | 6.0 | 10.0 | 0.00 | 0.00 | 0.00 | 78 | 1010.4 |
| 20260905115533 | 68 | 348 | 6.0 | 9.0 | 0.00 | 0.00 | 0.00 | 79 | 1010.3 |
| 20260905115031 | 68 | 348 | 6.0 | 9.0 | 0.00 | 0.00 | 0.00 | 79 | 1010.3 |
| 20260905114555 | 68 | 348 | 5.0 | 9.0 | 0.00 | 0.00 | 0.00 | 80 | 1010.3 |
| 20260905114029 | 68 | 348 | 5.0 | 9.0 | 0.00 | 0.00 | 0.00 | 79 | 1010.3 |
| 20260905113532 | 68 | 348 | 4.0 | 8.0 | 0.00 | 0.00 | 0.00 | 79 | 1010.3 |
| 20260905113055 | 68 | 348 | 4.0 | 9.0 | 0.00 | 0.00 | 0.00 | 79 | 1010.2 |
| 20260905112530 | 68 | 348 | 5.0 | 10.0 | 0.00 | 0.00 | 0.00 | 79 | 1010.2 |
| 20260905112029 | 68 | 348 | 5.0 | 10.0 | 0.00 | 0.00 | 0.00 | 80 | 1010.1 |
| 20260905111556 | 68 | 348 | 5.0 | 10.0 | 0.00 | 0.00 | 0.00 | 79 | 1010.1 |
| 20260905111032 | 68 | 348 | 5.0 | 8.0 | 0.00 | 0.00 | 0.00 | 79 | 1010.1 |
| 20260905110532 | 68 | 348 | 4.0 | 6.0 | 0.00 | 0.00 | 0.00 | 78 | 1010.0 |
| 20260905110045 | 68 | 348 | 4.0 | 8.0 | 0.00 | 0.00 | 0.00 | 79 | 1010.0 |
| 20260905105530 | 68 | 348 | 5.0 | 9.0 | 0.00 | 0.00 | 0.00 | 78 | 1009.9 |
| 20260905105031 | 68 | 348 | 5.0 | 9.0 | 0.00 | 0.00 | 0.00 | 78 | 1009.9 |
| 20260905104545 | 68 | 348 | 6.0 | 9.0 | 0.00 | 0.00 | 0.00 | 79 | 1009.7 |
| 20260905104032 | 68 | 349 | 5.0 | 8.0 | 0.00 | 0.00 | 0.00 | 79 | 1009.7 |
| 20260905103531 | 68 | 349 | 4.0 | 6.0 | 0.00 | 0.00 | 0.00 | 79 | 1009.6 |
| 20260905103052 | 68 | 349 | 4.0 | 8.0 | 0.00 | 0.00 | 0.00 | 78 | 1009.7 |
| 20260905102529 | 68 | 349 | 4.0 | 8.0 | 0.00 | 0.00 | 0.00 | 77 | 1009.6 |
| 20260905102030 | 68 | 349 | 5.0 | 8.0 | 0.00 | 0.00 | 0.00 | 77 | 1009.7 |
| 20260905101559 | 68 | 349 | 4.0 | 9.0 | 0.00 | 0.00 | 0.00 | 76 | 1009.6 |
| 20260905101030 | 69 | 349 | 5.0 | 9.0 | 0.00 | 0.00 | 0.00 | 77 | 1009.5 |
| 20260905100534 | 69 | 349 | 5.0 | 9.0 | 0.00 | 0.00 | 0.00 | 78 | 1009.6 |
| 20260905100047 | 69 | 348 | 4.0 | 8.0 | 0.00 | 0.00 | 0.00 | 77 | 1009.5 |
| 20260905095531 | 69 | 348 | 5.0 | 9.0 | 0.00 | 0.03 | 0.00 | 77 | 1009.5 |
| 20260905095032 | 69 | 348 | 6.0 | 10.0 | 0.00 | 0.03 | 0.00 | 77 | 1009.4 |
| 20260905094547 | 69 | 348 | 6.0 | 10.0 | 0.00 | 0.03 | 0.00 | 78 | 1009.5 |